Location: Bothwell
(41.7170°N, 112.2589°W)
Time: 01:08:43
(UTC+00:00)

Vanguard 1 - All Passes

Search period start: 14 May 2026 00:00
Search period end: 24 May 2026 00:00
Orbit: 654 x 3817 km, 34.2° (Epoch: 13 May)

Date Brightness Start Highest point End Pass type
(mag) Time Alt. Az. Time Alt. Az. Time Alt. Az.
14 May - 01:54:18 10° WSW 02:04:51 64° S 02:24:00 10° ESE daylight
14 May - 04:14:34 10° W 04:28:39 55° SSW 04:50:16 10° SE visible
14 May - 06:37:35 10° W 06:52:54 31° SW 07:11:24 10° SSE visible
14 May - 21:39:09 10° S 21:43:18 16° SE 21:48:47 10° E daylight
14 May - 23:54:38 10° SW 00:02:22 50° SSE 00:16:25 10° E daylight
15 May - 02:13:28 10° W 02:24:18 64° S 02:43:44 10° ESE daylight
15 May - 04:34:00 10° W 04:48:08 49° SSW 05:09:13 10° SE visible
15 May - 06:58:07 10° W 07:12:07 25° SW 07:28:31 10° S visible
15 May - 21:56:51 10° S 22:01:55 23° SE 22:09:20 10° E daylight
16 May - 00:13:33 10° WSW 00:21:30 55° SSE 00:36:15 10° E daylight
16 May - 02:32:41 10° W 02:43:45 61° S 03:03:21 10° ESE daylight
16 May - 04:53:33 10° W 05:07:34 43° SSW 05:27:51 10° SE visible
16 May - 07:19:30 10° W 07:31:17 19° SW 07:44:40 10° S visible
16 May - 22:15:06 10° SSW 22:20:39 30° SE 22:29:27 10° E daylight
17 May - 00:32:34 10° WSW 00:40:45 59° S 00:56:03 10° E daylight
17 May - 02:51:55 10° W 03:03:13 57° SSW 03:22:48 10° ESE visible
17 May - 05:13:17 10° W 05:26:59 36° SSW 05:46:06 10° SSE visible
17 May - 07:42:50 10° WSW 07:50:28 13° SW 07:58:41 10° SSW visible
17 May - 22:33:38 10° SW 22:39:31 37° SSE 22:49:21 10° E daylight
18 May - 00:51:38 10° WSW 01:00:04 60° S 01:15:49 10° ESE daylight
18 May - 03:11:13 10° W 03:22:41 52° SSW 03:42:03 10° SE visible
18 May - 05:33:18 10° W 05:46:21 30° SW 06:03:51 10° SSE visible
18 May - 20:38:04 10° SSE 20:39:53 11° SE 20:41:56 10° ESE daylight
18 May - 22:52:21 10° SW 22:58:30 43° SSE 23:09:09 10° E daylight
19 May - 01:10:46 10° WSW 01:19:24 59° S 01:35:31 10° ESE daylight
19 May - 03:30:37 10° W 03:42:08 46° SSW 04:01:01 10° SE visible
19 May - 05:53:47 10° W 06:05:42 23° SW 06:20:56 10° S visible
19 May - 20:55:01 10° S 20:58:34 17° SE 21:03:07 10° ESE daylight
19 May - 23:11:14 10° WSW 23:17:35 49° SSE 23:28:53 10° E daylight
20 May - 01:29:55 10° W 01:38:47 57° S 01:55:06 10° ESE daylight
20 May - 03:50:07 10° W 04:01:34 39° SSW 04:19:40 10° SE visible
20 May - 06:15:10 10° WSW 06:25:02 17° SW 06:36:56 10° S visible
20 May - 21:13:04 10° SSW 21:17:20 23° SE 21:23:18 10° E daylight
20 May - 23:30:13 10° WSW 23:36:46 53° S 23:48:36 10° E daylight
21 May - 01:49:08 10° W 01:58:10 52° S 02:14:32 10° ESE daylight
21 May - 04:09:49 10° W 04:21:01 33° SSW 04:37:55 10° SSE visible
21 May - 06:39:00 10° WSW 06:44:23 12° SW 06:50:16 10° SSW visible
21 May - 21:31:31 10° SSW 21:36:11 30° SSE 21:43:10 10° E daylight
21 May - 23:49:16 10° WSW 23:55:59 55° S 00:08:15 10° ESE daylight
22 May - 02:08:24 10° W 02:17:34 47° SSW 02:33:45 10° SE daylight
22 May - 04:29:50 10° W 04:40:27 27° SSW 04:55:38 10° SSE visible
22 May - 21:50:12 10° SW 21:55:09 36° SSE 22:02:53 10° E daylight
23 May - 00:08:22 10° WSW 00:15:15 54° S 00:27:51 10° ESE daylight
23 May - 02:27:46 10° W 02:36:58 41° SSW 02:52:43 10° SE daylight
23 May - 04:50:22 10° WSW 04:59:53 21° SSW 05:12:36 10° S visible
23 May - 19:53:17 10° S 19:55:23 13° SE 19:57:44 10° ESE daylight
23 May - 22:09:04 10° SW 22:14:12 42° SSE 22:22:31 10° E daylight
